Temperature
16 16 16 17 13 12 13 14 14 15 15 15 14 14 13 12 13 13 11 11 11 12 12 12 12 12 12 12 13 13 13 13 13 13 13 13 13 13 13 13 13 13 14 14 14 14 14 14 14
15 16 16 16 12 12 13 13 14 14 15 14 14 13 12 10 11 11 11 11 11 11 12 12 12 12 12 12 12 12 13 13 13 13 13 13 13 13 13 13 13 13 13 13 13 14 14 14 14
15 16 16 11 11 12 14 14 13 13 14 14 12 12 11 10 10 10 11 11 11 11 11 12 12 12 12 12 12 12 12 12 12 12 12 12 13 13 13 13 13 13 13 13 13 13 13 13 13
15 15 14 11 12 12 13 13 13 13 14 14 12 10 10 10 10 10 10 10 11 11 11 11 11 11 12 12 12 12 12 12 12 12 12 12 12 12 13 13 13 13 13 13 13 13 13 13 13
15 15 11 11 12 12 12 13 13 12 13 13 12 9 9 10 10 10 10 10 10 11 11 11 11 11 11 11 11 11 12 12 12 12 12 12 12 12 12 13 13 12 12 13 12 12 13 13 13
14 11 10 10 11 12 12 13 13 12 12 12 11 9 8 9 9 10 10 10 10 10 11 10 10 11 11 11 11 11 11 11 11 11 12 12 12 12 12 12 12 12 12 12 12 12 12 12 13
13 9 10 11 12 12 13 13 12 11 11 11 12 9 8 8 9 9 9 10 10 10 10 10 10 10 10 11 11 11 11 11 11 11 12 12 12 12 12 12 12 12 12 12 12 12 12 12 12
14 9 11 11 12 12 12 13 12 12 11 12 12 9 8 9 8 8 9 9 9 9 10 10 10 10 10 10 10 11 11 11 11 11 11 11 11 11 11 12 12 12 12 12 12 12 11 12 12
13 9 10 11 11 12 12 11 11 12 11 10 10 10 10 9 8 8 8 8 9 9 9 9 9 10 10 10 10 10 10 11 11 11 11 11 11 11 11 11 11 11 11 11 11 11 11 11 11
11 8 10 10 11 11 11 11 11 10 10 9 9 10 10 9 8 8 8 8 8 9 9 9 9 9 9 9 10 10 10 10 10 10 10 10 10 10 10 11 11 11 11 11 11 11 11 11 11
9 8 9 10 11 11 10 10 10 10 8 9 9 9 9 8 8 8 8 8 8 8 8 8 9 9 9 9 9 9 9 10 10 10 10 10 10 10 10 10 10 10 10 10 10 10 10 10 10
9 9 10 10 10 11 10 10 9 9 10 10 10 10 9 8 8 8 8 8 8 8 8 8 8 8 8 8 9 9 9 9 9 9 9 9 9 9 9 10 10 10 10 10 10 10 10 10 10
8 8 9 9 10 10 9 9 8 8 10 10 9 9 9 9 8 8 8 7 7 7 8 8 7 8 8 8 8 8 8 8 8 9 9 9 9 9 9 9 9 9 9 9 9 9 9 9 9
8 8 8 9 9 9 8 8 8 8 9 9 9 8 8 8 8 8 7 7 7 7 7 7 7 7 7 7 8 8 8 8 8 8 8 8 8 8 8 8 8 8 9 9 9 9 9 9 9
9 8 7 8 8 8 8 7 6 8 8 8 8 8 8 8 8 8 7 7 7 7 7 7 7 7 6 7 7 7 7 7 7 7 7 8 8 8 8 8 8 8 8 8 8 8 8 8 8
8 7 7 7 7 7 7 7 7 8 8 7 7 8 8 8 7 7 7 7 7 6 6 6 6 6 6 6 6 6 7 7 7 7 7 7 7 7 7 7 7 7 7 7 7 8 8 8 8
6 6 6 7 7 6 6 6 6 7 7 6 6 7 7 7 7 7 7 7 6 6 6 6 6 6 5 5 5 6 6 6 6 6 6 6 6 7 7 7 7 7 7 7 7 7 7 7 7
6 5 6 6 6 5 5 5 5 6 6 6 6 6 6 6 6 7 6 6 6 6 5 5 5 5 5 5 5 5 5 5 5 5 6 6 6 6 6 6 6 6 6 6 6 6 6 6 6
6 6 6 6 6 5 4 5 5 5 5 5 5 5 5 6 6 6 6 5 5 5 5 5 5 5 5 5 5 5 5 5 5 5 5 5 5 5 5 5 6 6 6 6 5 5 5 5 5
6 6 5 5 5 5 4 4 4 4 4 5 4 4 5 5 5 5 5 5 5 5 4 4 4 4 4 4 4 4 4 4 4 4 4 4 4 4 5 5 5 5 5 5 5 5 5 5 4
5 5 5 5 4 4 4 4 4 4 4 4 5 5 5 5 5 5 4 4 4 4 4 4 4 4 4 4 4 4 4 4 4 4 4 4 4 4 4 4 4 4 4 4 4 4 4 4 4
5 5 5 4 3 2 3 3 3 3 2 2 3 4 4 5 5 5 4 4 4 4 4 4 4 4 3 3 3 3 3 3 3 3 3 3 3 3 3 3 3 3 3 3 3 3 3 3 3
4 4 4 3 2 2 2 2 3 2 2 2 2 3 3 4 4 4 4 4 4 4 4 3 3 3 3 3 3 2 3 3 3 2 2 3 3 3 3 3 3 3 3 3 3 3 3 2 3
3 3 2 1 1 2 2 2 3 2 2 2 2 2 3 3 4 4 4 4 4 3 3 3 3 2 2 2 2 2 2 2 2 2 2 2 2 2 2 2 2 2 2 2 2 2 2 2 2
2 2 2 2 1 2 1 1 2 1 1 1 1 2 2 3 3 3 3 3 3 3 3 2 2 2 2 2 2 1 1 1 1 1 1 1 2 2 2 2 2 2 1 1 1 1 1 1 1
2 2 2 3 2 2 1 1 1 0 0 1 1 1 1 2 2 2 2 2 3 2 2 2 1 2 1 1 1 1 1 1 1 1 1 1 1 1 1 1 1 1 1 1 1 1 1 1 1
1 1 1 1 1 1 1 0 0 0 -0 -0 -0 -0 0 1 1 1 1 2 2 2 1 1 1 1 1 1 0 0 0 0 0 -0 -0 -0 0 0 0 0 0 0 0 0 0 -0 -0 -0 -0
1 0 -0 1 1 1 1 0 1 0 -0 -1 -1 -1 -0 0 0 0 1 1 1 1 1 0 0 0 0 0 -0 -0 -0 -0 -1 -1 -1 -1 -1 -1 -1 -0 -0 -0 -0 -0 -1 -1 -1 -1 -1
-0 -0 -0 -0 -0 1 1 1 0 -0 -1 -2 -2 -1 -1 -1 -1 -0 -0 0 0 0 0 -0 -0 -1 -1 -1 -1 -1 -1 -1 -1 -1 -1 -1 -1 -1 -1 -1 -1 -1 -1 -1 -1 -1 -1 -1 -1
-1 -1 -1 0 -0 -1 -1 0 -1 -2 -2 -2 -2 -1 -1 -1 -1 -1 -1 -1 -1 -1 -1 -1 -1 -1 -1 -1 -1 -1 -1 -2 -2 -2 -2 -2 -2 -2 -2 -2 -2 -2 -2 -2 -2 -2 -2 -2 -2
Wind_Speed
9 7 3 4 5 4 3 4 2 1 1 1 3 6 8 6 4 5 2 3 5 4 4 5 6 8 9 9 10 10 11 11 12 12 13 13 13 13 13 13 13 13 13 14 14 14 14 14 15
5 2 5 5 5 2 5 4 4 4 3 4 4 5 6 4 3 6 3 3 7 6 6 6 8 9 10 10 10 10 10 11 11 12 12 12 13 13 12 12 12 13 13 13 13 13 14 14 14
4 2 4 5 4 6 6 4 6 2 2 3 4 5 4 4 4 4 3 6 8 7 6 7 9 10 10 10 11 10 10 11 11 11 12 12 12 12 12 12 12 12 12 12 12 13 13 13 13
3 5 5 4 4 5 5 4 4 3 2 3 5 5 3 3 3 3 5 8 8 7 7 7 10 10 10 10 11 11 11 11 11 11 11 11 12 12 12 11 12 11 11 12 12 13 13 13 13
4 4 3 1 5 4 3 3 4 4 3 2 5 5 3 3 4 7 7 8 8 6 7 7 9 10 10 10 11 11 11 11 11 11 11 11 11 11 12 11 11 11 11 11 12 12 12 13 13
4 4 4 4 5 3 3 3 4 3 3 3 5 6 3 1 5 6 7 7 8 7 8 8 9 9 10 10 10 11 11 10 10 10 10 10 10 10 11 11 11 11 11 11 11 11 12 12 12
5 5 5 5 4 4 3 2 4 4 4 3 6 6 3 2 3 6 7 7 8 8 8 8 8 8 9 9 10 10 10 10 10 10 10 10 10 10 10 10 11 11 11 11 11 10 11 11 12
5 5 3 4 5 5 2 2 2 4 4 2 5 8 5 5 4 6 7 7 7 7 7 7 8 8 8 8 9 9 9 9 10 10 10 10 10 10 9 9 10 10 10 10 11 10 10 11 11
4 4 4 5 6 4 2 3 1 2 5 3 2 3 4 10 8 8 6 5 5 5 4 6 6 7 7 7 7 8 8 9 9 9 10 10 9 9 8 9 9 9 10 10 10 10 10 10 10
4 4 7 4 3 3 2 3 4 3 3 2 3 4 8 10 10 9 7 6 5 4 3 4 5 5 6 6 6 7 7 8 8 8 9 9 9 8 8 8 9 9 9 9 9 10 10 9 9
4 6 4 2 1 2 2 2 2 6 4 6 7 8 10 9 9 8 7 7 6 6 4 3 4 4 5 5 5 5 6 6 7 8 8 8 8 8 8 8 8 8 8 8 8 8 8 8 7
3 3 3 2 1 1 3 3 2 4 6 5 8 12 12 11 11 10 9 7 6 5 5 3 4 4 4 5 4 4 5 5 5 6 7 7 6 6 6 6 6 6 6 7 7 6 7 7 7
4 3 1 1 0 1 2 3 3 4 3 4 9 11 12 11 10 8 7 6 6 6 5 5 4 3 3 4 3 4 4 4 4 5 6 6 5 4 4 4 5 5 5 5 5 6 5 5 5
3 2 2 2 2 1 3 3 3 8 4 6 8 10 11 11 10 8 7 7 7 7 6 5 4 4 4 3 3 3 4 4 5 5 5 5 5 4 3 3 4 4 4 4 4 4 4 4 4
2 1 3 3 3 2 2 5 8 8 5 6 8 9 10 10 9 11 10 9 9 8 7 6 5 5 4 3 3 3 3 4 4 3 4 4 4 4 3 3 3 3 3 4 5 5 5 4 3
1 0 4 4 4 3 5 10 7 5 7 8 8 8 9 9 10 10 10 9 8 7 7 6 5 5 4 3 2 3 3 4 3 3 3 3 4 4 4 3 2 2 3 4 3 3 2 2 2
1 3 5 5 3 3 5 9 6 4 8 9 8 8 8 8 9 9 9 9 9 9 8 7 5 5 4 3 3 2 3 3 3 3 3 3 3 3 3 2 1 2 3 3 2 2 2 2 2
5 4 4 5 3 3 6 11 9 5 7 9 8 8 8 9 11 10 9 9 8 8 8 7 6 5 4 3 2 2 1 1 2 2 2 2 2 2 2 2 2 2 2 1 2 1 1 1 1
4 4 6 5 3 3 8 13 12 7 6 7 7 7 8 10 7 7 8 8 7 7 8 8 7 6 5 4 3 2 2 2 1 2 3 3 3 3 2 2 2 2 1 1 1 1 1 1 1
4 5 6 4 2 3 7 12 10 8 7 8 9 9 9 7 5 6 7 7 8 9 9 8 8 7 6 5 3 2 2 2 2 2 2 3 4 4 3 2 2 2 2 1 1 1 1 0 0
6 7 6 5 4 3 5 8 6 5 5 5 6 6 6 8 8 7 8 9 8 9 10 9 8 7 6 5 3 2 1 1 1 2 2 3 4 4 3 3 2 3 3 3 3 3 2 1 1
7 4 4 4 3 5 2 6 7 5 5 6 6 5 5 5 6 7 8 8 9 10 9 9 9 8 6 6 6 6 4 4 4 3 3 3 4 4 4 4 3 3 3 3 3 2 2 3 2
4 2 3 4 4 4 3 5 8 3 5 7 6 5 5 4 5 7 8 8 8 7 7 7 7 7 6 6 7 7 5 4 2 2 3 3 3 3 4 4 4 4 4 4 4 3 2 3 3
1 2 2 1 1 6 7 7 7 5 6 4 3 3 4 4 3 4 5 5 4 5 5 6 6 6 6 6 6 7 7 5 4 4 4 4 2 2 3 4 4 4 4 4 4 4 4 4 3
2 3 2 3 2 7 3 5 8 6 4 4 4 3 3 2 3 3 3 5 5 5 6 6 6 6 6 6 7 7 7 7 7 6 6 5 4 3 4 4 4 4 4 5 4 4 4 4 4
4 5 5 5 5 5 3 7 6 3 2 1 1 1 2 2 2 2 3 4 5 6 6 6 6 5 6 6 6 6 6 5 5 6 5 6 5 5 4 5 5 5 5 5 5 4 4 4 4
3 4 3 3 2 4 6 6 6 1 2 2 2 2 3 3 2 2 1 1 3 4 5 6 6 5 5 6 6 5 6 5 5 5 5 5 4 4 5 5 4 4 5 5 5 4 5 5 5
2 4 3 3 3 5 6 5 4 4 3 2 2 3 3 3 3 3 2 2 2 2 3 3 5 6 5 5 6 5 5 5 5 5 6 5 5 5 5 5 5 5 5 5 5 5 5 5 5
3 2 3 3 3 4 5 6 3 4 3 3 3 3 3 3 3 3 3 2 2 2 2 3 4 4 4 5 5 5 5 5 5 5 6 6 5 5 6 6 5 6 5 5 5 5 6 6 6
4 5 5 4 5 4 4 7 3 2 1 1 2 3 3 3 3 3 3 3 2 2 2 3 3 4 5 5 4 5 5 5 5 6 5 5 5 5 6 5 5 6 5 5 6 6 6 7 7
Wind_Direction
331 339 70 59 63 63 227 245 217 177 140 106 80 102 112 109 126 148 147 130 114 113 106 104 98 92 92 97 93 93 91 89 88 86 85 83 82 81 79 77 77 75 75 76 77 77 77 76 76
337 8 61 65 105 172 250 240 210 222 180 136 78 81 88 83 71 111 132 134 118 113 106 104 101 96 93 95 96 95 94 93 92 90 87 85 83 82 81 79 79 78 77 78 77 76 76 75 76
331 63 86 88 142 190 219 222 194 177 97 125 91 58 95 123 123 140 154 128 111 102 101 105 104 98 95 92 93 97 96 95 95 94 91 89 86 83 81 78 79 79 79 79 77 76 75 74 74
56 54 63 97 203 227 213 204 175 144 81 74 114 88 70 42 146 143 123 115 108 95 98 108 105 100 97 95 92 94 96 94 94 94 92 90 87 83 81 79 78 79 83 83 81 79 74 73 72
63 84 94 187 232 245 239 210 168 160 158 112 114 118 100 358 99 112 111 112 112 96 93 108 108 104 99 95 93 92 91 91 91 91 90 89 88 85 81 82 81 80 84 86 84 80 76 73 71
65 80 125 211 232 241 243 204 158 153 155 129 118 124 141 98 108 116 110 106 106 100 90 98 107 104 101 98 94 90 88 88 90 90 89 88 88 86 84 82 82 83 87 88 87 82 77 74 71
117 122 178 197 213 237 232 180 157 153 161 180 145 131 148 190 149 123 111 103 100 98 89 84 90 96 98 98 95 92 88 86 88 88 89 89 87 86 86 84 81 82 85 86 87 85 81 77 74
132 127 189 206 201 229 217 153 144 147 170 131 125 146 183 197 160 118 110 105 99 93 89 87 84 84 84 91 96 93 89 84 83 84 85 88 86 83 83 83 85 85 82 82 84 83 83 78 75
102 105 208 212 196 215 181 138 84 79 106 84 76 146 162 145 134 115 105 95 104 102 88 91 87 85 86 87 95 94 92 85 78 81 83 83 78 76 74 76 84 87 86 83 81 79 78 74 71
105 176 219 216 194 185 172 160 159 121 114 110 65 59 115 135 140 141 143 147 143 137 126 102 99 96 95 90 86 86 86 84 77 77 83 81 81 77 74 74 75 77 83 84 80 76 73 68 63
155 193 212 223 221 167 159 159 158 144 194 201 178 155 143 145 152 158 163 166 164 158 144 121 112 112 105 96 95 86 85 84 81 79 84 84 81 76 71 67 62 62 66 69 73 72 66 64 64
170 226 205 219 251 164 179 167 178 188 214 183 161 155 155 162 171 177 176 175 168 161 158 145 124 117 112 111 107 98 89 86 82 84 88 89 77 67 65 63 61 59 61 59 65 68 66 66 66
206 229 210 218 153 159 157 203 205 237 223 136 137 150 166 175 181 185 179 174 170 173 170 165 142 127 119 112 110 106 99 97 96 91 90 97 90 78 68 61 62 57 62 63 61 61 64 66 63
199 200 238 251 240 232 196 239 214 240 185 150 157 171 181 184 186 184 183 184 184 183 178 172 156 141 124 116 116 115 116 113 105 96 98 103 103 95 83 65 53 49 60 67 73 64 64 63 62
112 65 301 250 216 217 162 266 233 227 173 174 184 187 189 194 189 191 193 191 188 187 180 176 163 144 138 132 135 128 125 119 107 109 113 108 104 110 102 83 61 48 64 73 73 65 63 58 54
74 29 270 261 186 185 168 251 247 201 180 201 202 199 198 203 201 201 196 190 185 180 179 181 172 157 156 148 140 133 134 128 121 126 128 121 112 120 118 101 78 74 81 74 72 69 62 49 35
34 235 246 272 207 168 194 247 257 204 193 213 213 211 209 212 212 208 197 189 183 182 180 181 174 168 165 155 147 138 139 139 138 140 136 135 124 122 115 118 108 106 89 69 77 68 79 74 37
216 225 244 247 241 190 228 253 263 239 214 224 223 219 215 217 220 209 198 190 182 180 179 178 175 174 161 146 125 108 120 136 143 153 160 151 145 138 118 117 115 116 100 84 74 78 73 114 79
191 214 247 256 258 232 244 259 263 247 233 236 231 222 220 224 220 200 192 183 175 173 175 177 176 177 165 163 168 175 195 196 191 192 188 177 167 165 142 131 133 123 139 152 116 105 89 68 67
232 248 258 285 288 251 269 271 266 240 224 224 227 230 229 222 209 197 188 183 184 184 185 184 183 180 179 181 180 180 180 202 204 201 203 198 191 187 182 169 173 164 151 151 149 115 102 20 98
241 232 241 258 314 304 303 295 265 255 232 240 236 227 220 213 206 198 192 193 191 192 191 191 189 185 183 176 159 141 97 72 194 213 218 228 212 206 204 198 194 185 177 189 199 175 163 187 272
244 239 238 250 271 271 232 278 272 257 264 252 247 239 227 220 209 199 193 195 197 199 193 192 188 185 182 172 176 179 190 206 218 217 218 233 222 218 216 210 212 204 196 198 208 201 191 174 208
224 245 248 252 230 272 243 239 275 255 256 255 245 239 234 224 209 204 199 199 199 192 189 190 185 186 183 181 185 192 206 217 217 212 218 220 231 224 219 214 216 217 208 205 206 210 209 195 199
160 29 356 17 118 260 230 211 270 235 231 250 253 241 237 229 219 216 204 190 191 185 181 181 182 188 187 188 191 197 204 205 205 213 220 223 231 233 223 218 218 225 218 210 211 208 209 211 207
89 96 358 329 288 249 224 216 250 255 245 219 221 245 261 246 224 222 208 194 190 187 185 183 184 193 194 195 199 203 206 204 208 212 217 223 225 232 227 226 221 225 226 218 209 208 212 213 210
204 173 187 224 241 276 267 233 249 280 298 229 201 265 330 317 269 242 227 210 199 195 191 189 192 200 199 202 209 208 207 208 217 217 216 220 226 229 228 226 225 229 226 223 213 215 218 216 218
174 208 199 175 248 269 261 273 295 321 3 15 13 6 338 324 316 290 270 235 218 202 198 195 198 206 207 209 211 212 208 212 220 221 219 221 227 236 227 222 221 227 229 221 213 222 221 218 223
170 163 119 167 220 255 274 264 262 272 272 293 302 308 317 332 333 328 314 290 268 231 211 203 204 210 214 213 213 220 215 217 220 221 223 225 227 228 223 226 223 224 230 226 217 224 222 220 226
155 174 180 185 206 211 264 266 254 235 231 245 276 294 303 316 319 320 322 325 308 288 234 223 221 220 219 218 221 223 220 220 220 224 229 228 229 223 223 226 226 226 231 230 223 226 218 220 227
188 195 174 193 233 216 239 269 315 304 289 244 286 301 317 322 328 330 329 329 310 280 253 240 235 230 229 222 221 224 222 218 220 227 233 231 230 228 226 223 229 230 230 230 225 225 222 220 224
Height
1504 1505 1507 1509 1514 1525 1525 1518 1512 1510 1510 1510 1510 1509 1511 1516 1520 1527 1525 1524 1526 1528 1530 1531 1533 1534 1535 1536 1537 1537 1537 1538 1538 1538 1539 1539 1539 1539 1539 1540 1540 1540 1540 1540 1541 1541 1541 1542 1542
1504 1505 1508 1509 1519 1530 1525 1515 1512 1509 1509 1510 1510 1511 1512 1516 1518 1520 1521 1524 1526 1527 1529 1531 1532 1534 1535 1536 1536 1537 1537 1538 1538 1538 1539 1539 1539 1539 1540 1540 1540 1540 1541 1541 1541 1542 1542 1542 1543
1503 1505 1507 1511 1521 1524 1517 1510 1509 1508 1508 1508 1511 1512 1514 1516 1518 1519 1521 1523 1525 1527 1528 1530 1532 1533 1534 1535 1536 1537 1537 1538 1538 1538 1538 1539 1539 1539 1540 1540 1540 1540 1541 1541 1542 1542 1542 1543 1543
1503 1506 1508 1515 1518 1514 1509 1507 1507 1507 1507 1508 1510 1514 1516 1518 1518 1519 1520 1522 1524 1526 1528 1529 1531 1532 1533 1534 1535 1536 1537 1537 1537 1538 1538 1538 1539 1539 1539 1540 1540 1540 1541 1541 1542 1542 1543 1543 1544
1503 1504 1512 1518 1515 1510 1506 1505 1506 1506 1507 1509 1510 1513 1516 1518 1518 1519 1520 1522 1523 1525 1527 1528 1530 1531 1532 1533 1534 1535 1536 1536 1537 1537 1538 1538 1538 1539 1539 1539 1540 1540 1540 1541 1542 1542 1543 1544 1544
1502 1504 1517 1519 1513 1508 1505 1504 1505 1505 1507 1508 1510 1513 1515 1517 1517 1518 1520 1521 1523 1525 1526 1527 1529 1530 1531 1532 1533 1534 1535 1535 1536 1537 1537 1538 1538 1538 1539 1539 1539 1539 1540 1541 1541 1542 1543 1543 1544
1502 1508 1513 1513 1510 1508 1504 1504 1504 1505 1506 1507 1508 1512 1514 1516 1517 1518 1519 1521 1523 1524 1525 1527 1528 1529 1530 1531 1532 1533 1534 1534 1535 1536 1536 1537 1537 1538 1538 1538 1539 1539 1539 1540 1541 1542 1542 1543 1544
1500 1506 1509 1509 1508 1505 1502 1502 1503 1504 1505 1507 1508 1509 1511 1513 1515 1517 1519 1520 1522 1523 1524 1525 1526 1528 1529 1530 1531 1532 1532 1533 1534 1535 1535 1536 1536 1537 1537 1538 1538 1538 1539 1540 1540 1541 1542 1543 1543
1499 1508 1510 1506 1504 1502 1501 1501 1503 1503 1504 1505 1506 1507 1509 1511 1513 1515 1517 1518 1520 1521 1522 1524 1525 1526 1527 1528 1529 1530 1531 1532 1533 1534 1534 1535 1535 1536 1537 1537 1538 1538 1538 1539 1540 1540 1541 1542 1543
1498 1507 1504 1500 1499 1499 1499 1500 1501 1503 1504 1505 1505 1506 1507 1509 1510 1512 1513 1514 1516 1518 1520 1522 1523 1524 1526 1527 1528 1529 1530 1530 1531 1532 1533 1534 1534 1535 1536 1536 1537 1537 1538 1538 1539 1539 1540 1541 1542
1497 1501 1499 1498 1498 1498 1499 1500 1501 1501 1503 1502 1502 1503 1505 1507 1508 1509 1511 1512 1514 1516 1518 1519 1521 1522 1524 1525 1526 1527 1528 1529 1530 1531 1532 1532 1533 1534 1534 1535 1536 1536 1537 1537 1538 1538 1539 1540 1541
1497 1497 1497 1497 1497 1497 1498 1499 1500 1499 1499 1499 1501 1502 1503 1504 1505 1507 1508 1510 1512 1514 1515 1517 1519 1520 1522 1523 1524 1525 1526 1527 1528 1529 1530 1531 1532 1532 1533 1534 1534 1535 1535 1536 1537 1537 1538 1539 1540
1496 1496 1496 1496 1496 1497 1497 1498 1498 1498 1498 1499 1499 1500 1501 1502 1503 1505 1507 1509 1510 1512 1513 1515 1517 1518 1520 1521 1522 1523 1524 1525 1527 1527 1528 1530 1530 1531 1531 1532 1533 1533 1534 1534 1535 1536 1537 1538 1539
1495 1495 1495 1495 1495 1496 1497 1497 1498 1494 1496 1497 1497 1498 1499 1500 1501 1503 1504 1506 1507 1509 1511 1513 1514 1516 1518 1519 1520 1521 1522 1523 1524 1525 1526 1527 1528 1529 1530 1530 1531 1532 1532 1533 1534 1534 1535 1536 1537
1495 1496 1496 1494 1495 1496 1497 1497 1493 1491 1494 1494 1494 1495 1496 1497 1499 1499 1501 1502 1504 1506 1508 1510 1512 1514 1515 1517 1518 1519 1520 1521 1522 1523 1524 1525 1526 1527 1528 1528 1529 1530 1531 1531 1532 1533 1534 1534 1535
1495 1498 1499 1493 1493 1494 1499 1495 1488 1489 1490 1491 1491 1492 1493 1494 1495 1497 1498 1500 1502 1504 1506 1507 1509 1511 1512 1514 1515 1516 1517 1519 1520 1521 1522 1523 1524 1525 1526 1526 1527 1528 1528 1529 1530 1530 1531 1532 1533
1499 1502 1498 1494 1492 1493 1496 1492 1486 1487 1487 1487 1488 1488 1489 1490 1492 1493 1495 1496 1498 1500 1502 1504 1506 1508 1510 1511 1513 1514 1515 1516 1517 1518 1519 1520 1521 1522 1523 1524 1525 1525 1526 1526 1527 1528 1529 1529 1530
1500 1501 1498 1495 1491 1493 1495 1490 1485 1485 1485 1484 1485 1485 1485 1485 1486 1489 1491 1493 1495 1497 1499 1501 1503 1505 1507 1508 1510 1511 1512 1513 1514 1515 1516 1517 1518 1519 1520 1521 1522 1523 1523 1524 1524 1525 1526 1527 1527
1494 1496 1496 1493 1491 1493 1491 1487 1483 1482 1483 1482 1481 1481 1481 1481 1483 1485 1486 1489 1491 1493 1495 1497 1499 1501 1503 1504 1505 1506 1508 1509 1510 1512 1513 1514 1515 1516 1517 1518 1518 1519 1520 1521 1521 1522 1523 1524 1525
1493 1494 1495 1493 1491 1492 1490 1485 1480 1478 1478 1477 1477 1477 1476 1477 1479 1480 1482 1484 1486 1488 1491 1493 1495 1497 1499 1500 1502 1503 1505 1506 1507 1508 1509 1511 1512 1512 1513 1514 1515 1516 1517 1517 1518 1519 1519 1520 1522
1492 1494 1494 1494 1492 1491 1491 1485 1479 1474 1474 1473 1473 1472 1473 1473 1474 1476 1478 1480 1482 1484 1486 1488 1491 1493 1495 1497 1498 1500 1501 1502 1503 1503 1505 1507 1508 1509 1509 1510 1511 1512 1513 1513 1514 1515 1516 1516 1518
1491 1490 1491 1492 1496 1498 1494 1492 1479 1475 1473 1470 1469 1469 1469 1470 1471 1472 1474 1476 1477 1480 1482 1485 1487 1489 1491 1492 1494 1494 1495 1496 1497 1499 1500 1502 1503 1504 1505 1506 1507 1508 1508 1509 1511 1512 1513 1513 1514
1490 1490 1491 1492 1496 1499 1496 1496 1479 1475 1472 1468 1466 1466 1466 1467 1467 1468 1470 1472 1474 1477 1479 1481 1483 1485 1486 1488 1489 1490 1491 1493 1494 1495 1496 1497 1498 1499 1501 1502 1502 1503 1504 1505 1506 1507 1509 1509 1510
1489 1492 1492 1495 1498 1497 1491 1493 1478 1474 1467 1465 1464 1463 1463 1464 1465 1466 1467 1469 1471 1473 1475 1477 1479 1480 1482 1483 1485 1486 1487 1488 1489 1490 1490 1491 1493 1494 1495 1497 1498 1499 1500 1500 1502 1503 1504 1505 1506
1491 1496 1499 1498 1502 1492 1488 1487 1476 1467 1464 1463 1462 1462 1462 1462 1462 1463 1464 1465 1467 1468 1470 1472 1474 1475 1477 1479 1480 1481 1482 1483 1484 1485 1486 1486 1487 1488 1490 1491 1492 1493 1495 1496 1497 1498 1499 1500 1501
1490 1491 1496 1495 1494 1490 1487 1483 1471 1465 1462 1461 1461 1461 1461 1461 1461 1461 1461 1462 1463 1465 1466 1468 1469 1471 1472 1474 1475 1476 1477 1478 1479 1480 1481 1482 1482 1483 1484 1486 1487 1488 1489 1491 1492 1492 1494 1495 1496
1489 1491 1490 1495 1495 1495 1485 1479 1470 1464 1462 1462 1461 1461 1461 1460 1460 1460 1460 1460 1461 1462 1463 1464 1465 1467 1468 1469 1470 1471 1472 1473 1473 1474 1476 1476 1477 1478 1479 1480 1481 1482 1484 1485 1486 1487 1488 1489 1490
1487 1489 1494 1494 1492 1488 1482 1479 1471 1464 1462 1462 1462 1461 1460 1460 1459 1458 1458 1458 1459 1459 1460 1461 1462 1462 1463 1464 1465 1465 1466 1467 1468 1469 1469 1470 1471 1472 1473 1474 1475 1476 1478 1479 1480 1481 1482 1484 1484
1489 1491 1490 1492 1491 1488 1484 1474 1464 1462 1461 1461 1461 1460 1459 1458 1457 1456 1456 1456 1456 1457 1457 1457 1457 1458 1458 1459 1459 1460 1460 1461 1462 1462 1463 1465 1466 1467 1467 1468 1469 1470 1471 1473 1474 1475 1476 1477 1478
1485 1486 1488 1489 1489 1490 1487 1475 1461 1460 1460 1461 1461 1460 1459 1458 1456 1455 1454 1454 1453 1453 1453 1453 1453 1453 1454 1454 1454 1454 1454 1455 1455 1456 1457 1459 1459 1461 1461 1462 1463 1464 1465 1466 1468 1469 1470 1471 1472